Location: Baia Mare
(47.6567°N, 23.5850°E)
Time: 14:37:30
(UTC+02:00)

ISS - Pass Details

Date: 15 December 2018
Orbit: 401 x 408 km, 51.6° (Epoch: 16 December)

Event Time Altitude Azimuth Distance (km) Brightness Sun altitude
Rises 17:22:09 0° 286° (WNW) 2,319 0.8 -7.8°
Reaches altitude 10° 17:24:42 10° 266° (W) 1,454 0.3 -8.2°
Maximum altitude 17:26:55 17° 223° (SW) 1,097 -0.5 -8.5°
Drops below altitude 10° 17:29:08 10° 179° (S) 1,446 -0.7 -8.8°
Sets 17:31:39 0° 159° (SSE) 2,300 0.0 -9.2°
